Wind_Speed
55 57 59 60 62 63 64 65 66 66 66 67 67 67 67 68 68 67 67 67 66 65 65 65 64 63 62 62 62 62 63 64 65 66 68 70 71 72
58 59 60 61 62 63 64 64 64 64 63 63 64 64 64 65 65 65 64 63 62 60 58 57 57 56 56 55 56 55 56 57 59 61 63 65 67 70
58 59 60 60 61 62 62 61 61 61 60 60 61 62 62 62 62 61 59 57 55 53 51 50 49 48 48 48 48 48 48 49 50 52 54 57 60 64
57 58 58 59 58 58 58 58 58 59 58 58 58 59 59 58 56 55 53 50 47 44 42 42 41 41 41 41 41 41 41 41 41 42 45 48 51 55
56 56 56 55 55 55 55 55 55 55 56 55 55 54 53 51 50 47 44 42 40 38 37 37 37 36 36 36 35 35 35 35 35 36 37 40 44 48
53 52 52 52 52 52 52 52 52 53 52 50 48 46 44 43 41 39 37 36 36 36 35 34 34 33 32 32 31 31 31 32 33 33 34 35 38 41
49 49 49 49 50 50 50 50 49 48 45 43 40 38 36 36 35 34 33 33 34 34 33 32 31 31 30 30 30 29 29 29 30 30 31 33 35 37
48 48 48 48 48 47 47 46 44 40 37 35 33 32 31 31 32 32 33 32 31 30 30 30 29 28 28 28 27 27 26 26 27 27 28 30 32 34
47 47 47 46 44 43 41 39 36 32 30 28 27 28 29 30 31 30 30 29 28 27 27 26 27 26 25 24 24 24 24 25 25 25 25 27 28 30
45 44 42 41 39 36 34 31 28 27 25 26 27 28 29 28 27 26 25 24 24 24 23 23 23 23 23 22 21 21 21 22 22 22 22 22 24 26
41 38 36 33 31 28 25 23 22 22 23 25 26 26 26 26 25 23 22 21 21 21 20 20 19 19 18 18 18 18 18 18 18 18 18 19 20 22
35 31 28 25 22 20 17 16 17 19 22 23 24 24 24 22 21 20 19 18 18 18 18 16 15 14 13 13 14 14 14 14 14 14 14 15 16 18
26 23 19 16 13 11 11 13 15 17 19 20 21 21 21 19 18 18 18 18 17 16 15 14 13 12 11 10 10 10 10 11 12 12 12 13 14 16
18 14 11 8 7 8 9 11 14 16 17 18 19 19 18 18 18 18 18 18 16 14 13 12 11 10 8 7 6 7 7 8 8 9 9 10 12 14
10 7 4 4 5 7 8 11 13 15 16 17 18 17 18 18 18 18 18 18 15 13 12 11 10 9 7 5 4 4 4 4 5 6 7 8 10 13
3 2 2 4 6 7 9 11 13 14 16 16 17 17 18 18 19 19 19 18 15 13 11 10 10 9 7 6 5 4 3 2 1 3 5 7 9 13
2 3 4 6 7 8 10 12 13 15 16 17 17 18 18 19 20 20 20 19 17 15 13 12 11 11 10 9 8 7 6 4 2 1 3 6 9 13
5 6 7 8 9 10 12 13 15 16 17 18 18 19 19 20 21 21 21 21 20 19 17 16 15 15 15 13 12 11 9 8 7 5 5 7 10 13
8 8 9 9 10 12 13 15 16 18 18 19 20 20 21 21 22 22 23 23 23 22 21 20 19 19 18 17 16 14 13 12 11 9 9 10 12 14
9 10 10 11 12 13 15 17 18 19 19 20 21 21 22 23 24 24 24 24 25 25 24 23 23 22 21 20 18 17 16 15 14 13 12 13 15 16
11 11 12 12 13 15 16 18 19 20 20 21 21 22 22 23 24 25 25 25 25 25 24 24 24 24 23 22 20 19 19 18 17 16 16 15 16 17
12 12 13 14 14 16 17 18 20 21 22 22 23 23 23 23 24 24 25 25 24 24 24 25 25 24 23 22 21 21 22 22 21 20 19 18 18 19
13 13 14 14 15 16 17 18 20 21 22 24 24 25 25 25 24 24 24 24 24 24 25 25 24 24 23 22 23 23 24 24 23 22 22 22 21 20
Wind_Direction
289 288 287 287 288 288 289 288 288 288 288 288 288 288 288 287 287 287 286 285 284 283 281 280 278 276 274 273 271 269 268 265 263 260 257 254 251 248
288 288 288 288 288 288 289 289 289 290 290 289 289 289 289 289 288 288 288 287 286 284 282 280 278 277 275 273 272 270 269 267 264 261 257 253 249 246
288 288 289 289 289 290 290 291 291 291 291 291 291 291 290 290 290 290 289 288 287 285 283 281 279 278 276 274 272 271 270 268 265 261 257 253 249 246
289 289 290 290 290 291 292 292 293 293 294 294 293 293 293 293 292 291 290 289 288 286 284 282 280 279 277 275 273 271 270 269 266 262 258 254 250 246
290 291 291 292 292 293 294 295 295 295 296 297 297 296 296 295 295 294 293 291 290 288 286 284 281 280 278 276 274 272 270 268 265 262 258 254 250 247
292 292 293 294 294 295 296 297 297 298 299 299 300 300 299 298 298 297 295 293 292 290 288 285 282 280 278 276 274 272 270 267 265 262 258 254 251 247
294 294 295 296 296 297 298 299 300 301 301 302 302 302 301 301 300 299 297 296 294 292 290 286 283 280 277 275 274 272 270 267 265 262 259 255 250 246
296 296 297 297 298 300 300 301 302 303 304 305 305 304 304 303 302 301 299 298 296 294 291 288 285 281 278 275 272 270 269 268 266 263 259 256 251 246
297 298 299 300 301 302 302 303 304 306 308 309 309 309 308 307 306 304 303 302 301 298 295 291 287 283 279 276 272 269 268 268 267 264 260 255 249 245
299 300 300 301 302 302 303 304 307 311 313 314 315 315 315 314 313 312 310 308 307 305 301 297 292 287 280 275 272 270 269 267 266 262 258 253 247 242
300 301 301 301 301 302 303 306 311 314 317 320 321 321 321 321 320 318 317 315 314 312 309 305 299 293 284 276 272 271 270 267 265 261 256 248 244 238
301 301 301 300 300 302 305 311 316 321 324 327 328 329 329 329 329 330 329 326 323 321 319 315 308 299 291 284 277 273 270 265 263 259 253 244 240 231
301 301 302 301 302 307 314 321 326 329 332 334 336 337 338 339 340 339 336 332 329 328 326 323 319 312 300 290 285 278 274 267 262 257 251 241 232 222
302 304 306 310 315 323 330 335 338 340 343 345 346 348 349 349 347 345 343 339 336 334 333 332 330 328 321 307 298 287 279 269 262 254 246 235 225 215
305 309 318 335 343 346 348 349 351 353 355 356 357 358 0 359 358 357 355 352 349 347 347 347 346 346 344 338 331 317 297 278 264 247 236 224 212 204
313 348 17 15 13 10 7 4 5 6 6 8 10 11 12 12 12 11 9 8 8 9 10 12 13 15 20 24 21 13 1 326 265 225 210 200 194 190
83 72 55 42 35 29 25 21 19 18 19 21 21 23 24 24 24 23 23 25 28 31 32 35 39 45 48 48 47 44 45 52 69 123 170 177 177 177
90 77 66 56 48 43 38 34 31 29 29 31 31 32 32 32 32 33 35 38 41 45 48 52 56 59 58 57 56 59 60 62 69 84 113 145 158 164
86 79 73 65 59 52 47 43 40 38 38 40 40 40 41 41 41 42 44 46 48 52 57 60 62 62 62 60 59 62 65 68 73 83 99 121 138 148
86 82 77 71 65 60 53 49 46 45 45 45 45 46 47 47 48 49 50 52 55 58 60 62 64 64 63 62 60 62 66 72 77 84 97 113 127 137
88 85 81 76 72 65 59 55 52 49 48 48 49 50 50 51 51 52 54 55 57 59 61 63 64 64 63 62 62 64 67 72 79 85 94 107 119 129
90 89 85 81 76 69 64 59 56 53 52 52 53 53 53 53 53 54 55 57 59 60 61 62 63 63 64 65 67 69 70 73 78 86 94 104 113 121
92 91 88 83 77 71 67 62 59 56 55 55 55 55 55 54 54 55 56 57 58 60 61 62 63 64 66 68 70 71 73 75 79 85 91 98 107 117
Height
5739 5734 5728 5723 5718 5712 5706 5699 5694 5689 5684 5674 5668 5661 5654 5648 5642 5637 5633 5628 5625 5620 5616 5613 5609 5607 5605 5603 5602 5601 5601 5602 5603 5605 5608 5612 5617 5623
5723 5718 5712 5707 5701 5695 5689 5682 5676 5670 5666 5658 5650 5643 5637 5630 5624 5618 5613 5608 5604 5600 5596 5592 5589 5587 5585 5583 5582 5581 5580 5580 5581 5582 5585 5588 5594 5600
5707 5702 5697 5691 5685 5679 5672 5666 5659 5653 5648 5642 5633 5626 5619 5613 5606 5600 5595 5590 5585 5581 5577 5574 5571 5569 5567 5565 5564 5563 5562 5561 5561 5562 5564 5568 5572 5579
5691 5686 5681 5675 5669 5663 5657 5650 5644 5637 5631 5625 5618 5610 5602 5595 5589 5583 5578 5573 5569 5566 5562 5559 5556 5554 5552 5550 5548 5548 5547 5546 5546 5546 5548 5551 5555 5559
5676 5670 5665 5659 5654 5648 5642 5635 5629 5622 5615 5609 5602 5594 5587 5580 5574 5569 5564 5560 5556 5553 5549 5546 5544 5541 5539 5537 5536 5535 5534 5534 5533 5534 5534 5536 5539 5543
5661 5656 5651 5645 5640 5634 5628 5621 5615 5608 5600 5594 5587 5581 5574 5567 5562 5557 5553 5549 5545 5541 5538 5535 5532 5530 5528 5526 5525 5524 5523 5522 5522 5523 5523 5525 5527 5529
5647 5642 5637 5632 5626 5620 5614 5608 5601 5595 5588 5582 5576 5570 5564 5558 5553 5548 5543 5539 5535 5530 5527 5524 5522 5520 5518 5516 5515 5514 5513 5512 5512 5512 5513 5514 5515 5517
5633 5628 5623 5619 5613 5607 5602 5595 5589 5583 5578 5572 5567 5561 5556 5550 5545 5540 5535 5530 5526 5522 5518 5515 5512 5510 5508 5507 5505 5504 5503 5503 5503 5502 5503 5503 5505 5507
5620 5615 5610 5606 5601 5595 5590 5584 5579 5574 5570 5565 5560 5554 5549 5544 5538 5532 5526 5521 5517 5513 5509 5506 5503 5501 5499 5497 5496 5496 5495 5494 5494 5494 5494 5494 5495 5497
5608 5603 5599 5594 5590 5585 5580 5576 5572 5567 5563 5558 5553 5548 5542 5536 5530 5525 5519 5515 5510 5506 5502 5498 5495 5493 5491 5490 5489 5488 5488 5487 5486 5486 5486 5486 5487 5489
5597 5593 5589 5585 5581 5577 5573 5570 5567 5563 5558 5553 5548 5542 5536 5530 5525 5519 5514 5510 5505 5501 5496 5492 5489 5486 5484 5483 5482 5482 5481 5481 5480 5480 5480 5480 5481 5483
5588 5584 5581 5578 5575 5572 5569 5566 5563 5559 5555 5550 5544 5538 5532 5526 5521 5515 5510 5506 5501 5497 5493 5488 5485 5482 5480 5479 5478 5477 5476 5475 5475 5475 5475 5476 5476 5478
5580 5577 5574 5572 5570 5568 5566 5564 5561 5557 5552 5547 5541 5536 5530 5524 5519 5513 5508 5503 5499 5494 5490 5486 5482 5479 5477 5475 5474 5473 5472 5471 5471 5471 5471 5472 5473 5475
5574 5572 5571 5569 5568 5567 5565 5562 5559 5555 5550 5545 5540 5534 5529 5523 5518 5512 5507 5502 5497 5492 5488 5484 5481 5477 5475 5473 5472 5471 5470 5469 5469 5469 5469 5469 5471 5473
5571 5570 5569 5568 5567 5566 5564 5561 5558 5554 5549 5545 5539 5534 5529 5523 5518 5512 5506 5501 5495 5491 5487 5483 5480 5477 5474 5473 5471 5470 5469 5468 5467 5467 5467 5468 5470 5472
5570 5569 5569 5568 5567 5565 5563 5561 5557 5554 5549 5545 5540 5535 5530 5524 5518 5513 5507 5501 5496 5491 5487 5483 5480 5478 5475 5473 5472 5470 5469 5468 5467 5467 5467 5468 5469 5472
5570 5570 5569 5569 5567 5566 5564 5561 5558 5554 5550 5546 5541 5536 5531 5526 5520 5514 5509 5503 5497 5493 5489 5486 5482 5480 5478 5475 5473 5472 5470 5469 5468 5467 5468 5468 5470 5473
5571 5571 5570 5569 5568 5567 5565 5562 5559 5555 5551 5547 5543 5538 5533 5528 5523 5517 5512 5507 5501 5497 5493 5489 5487 5484 5482 5479 5477 5475 5473 5471 5470 5469 5469 5470 5472 5475
5572 5572 5572 5571 5570 5569 5566 5564 5561 5557 5554 5550 5546 5541 5536 5532 5527 5522 5517 5512 5507 5502 5498 5495 5492 5489 5487 5485 5482 5479 5477 5475 5474 5473 5473 5473 5475 5478
5574 5574 5574 5573 5572 5571 5569 5566 5563 5560 5556 5553 5549 5545 5540 5536 5531 5527 5522 5517 5513 5509 5505 5502 5498 5495 5493 5490 5488 5485 5482 5480 5478 5478 5478 5478 5480 5483
5576 5577 5576 5576 5575 5574 5572 5569 5567 5563 5560 5556 5553 5549 5545 5541 5537 5533 5528 5524 5520 5516 5513 5509 5505 5502 5499 5497 5495 5492 5489 5486 5484 5484 5483 5484 5486 5488
5579 5579 5579 5579 5578 5577 5575 5573 5570 5567 5564 5561 5557 5553 5550 5546 5542 5538 5535 5531 5527 5523 5520 5516 5513 5510 5507 5505 5502 5499 5496 5494 5492 5491 5490 5491 5493 5495
5583 5583 5583 5582 5581 5580 5579 5577 5574 5572 5569 5566 5562 5559 5555 5552 5548 5544 5541 5538 5534 5531 5527 5524 5520 5518 5515 5513 5510 5507 5505 5503 5501 5500 5499 5499 5500 5502